CW4043 Weather Reports


time (UTC)temp
C
wind
direction
speed
KPH
gust
KPH
rain 1hr
cm
rain 24hr
cm
rain mn
cm
humidity
%
barometer
mb
20260506144229 12 36 17.7 30.6 0.00 0.00 0.00 79 1009.8
20260506143727 12 30 17.7 33.8 0.00 0.00 0.00 80 1009.8
20260506143225 11 24 17.7 33.8 0.00 0.00 0.00 80 1009.8
20260506142949 11 33 17.7 27.4 0.00 0.00 0.00 80 1009.8
20260506142226 11 46 17.7 30.6 0.00 0.00 0.00 80 1009.8
20260506141726 11 38 17.7 30.6 0.00 0.00 0.00 80 1009.9
20260506141225 12 34 16.1 29.0 0.00 0.00 0.00 80 1009.9
20260506140722 12 34 17.7 30.6 0.00 0.00 0.00 80 1009.9
20260506140223 12 51 17.7 30.6 0.00 0.00 0.00 80 1009.9
20260506135720 12 39 19.3 30.6 0.00 0.00 0.00 81 1009.9
20260506135221 12 53 19.3 30.6 0.00 0.00 0.00 80 1010.0
20260506134721 12 37 19.3 33.8 0.00 0.00 0.00 80 1010.0
20260506134440 12 16 19.3 35.4 0.00 0.00 0.00 81 1009.8
20260506133718 12 38 16.1 35.4 0.00 0.00 0.00 80 1009.8
20260506133218 12 53 14.5 30.6 0.00 0.00 0.00 80 1009.9
20260506132718 12 51 14.5 27.4 0.00 0.00 0.00 80 1009.9
20260506132217 12 32 14.5 37.0 0.00 0.00 0.00 80 1009.8
20260506131716 12 27 17.7 37.0 0.00 0.00 0.00 80 1009.7
20260506131214 12 28 19.3 35.4 0.00 0.00 0.00 80 1009.7
20260506130714 12 46 19.3 32.2 0.00 0.00 0.00 79 1009.8
20260506130215 12 35 17.7 32.2 0.00 0.00 0.00 78 1009.8
20260506125713 12 56 16.1 30.6 0.00 0.00 0.00 79 1009.6
20260506125431 12 26 14.5 30.6 0.00 0.00 0.00 78 1009.6
20260506124712 12 71 16.1 29.0 0.00 0.00 0.00 78 1009.7
20260506124210 12 28 16.1 29.0 0.00 0.00 0.00 77 1009.6
20260506123709 12 24 16.1 32.2 0.00 0.00 0.00 77 1009.6
20260506123203 12 17 17.7 33.8 0.00 0.00 0.00 76 1009.5
20260506122923 13 32 17.7 33.8 0.00 0.00 0.00 74 1009.5
20260506122202 13 57 14.5 25.7 0.00 0.00 0.00 71 1009.4
20260506121702 13 65 12.9 29.0 0.00 0.00 0.00 67 1009.4
20260506121426 14 26 11.3 29.0 0.00 0.00 0.00 68 1009.3
20260506120933 13 36 12.9 29.0 0.00 0.00 0.00 68 1009.2
20260506120418 13 35 11.3 29.0 0.00 0.00 0.00 68 1009.3
20260506115659 13 34 11.3 25.7 0.00 0.00 0.00 68 1009.2
20260506115154 13 59 12.9 30.6 0.00 0.00 0.00 67 1009.1
20260506114655 13 33 14.5 30.6 0.00 0.00 0.00 67 1009.1
20260506114155 13 31 12.9 29.0 0.00 0.00 0.00 66 1009.1
20260506113654 13 119 12.9 25.7 0.00 0.00 0.00 68 1009.1
20260506113154 13 85 14.5 24.1 0.00 0.00 0.00 68 1009.1
20260506112654 13 53 14.5 29.0 0.00 0.00 0.00 69 1009.1
20260506112154 13 31 14.5 29.0 0.00 0.00 0.00 69 1009.1
20260506112133 13 46 12.9 27.4 0.00 0.00 0.00 70 1009.2
20260506111419 13 70 11.3 22.5 0.00 0.00 0.00 69 1009.1
20260506110648 13 55 9.7 22.5 0.00 0.00 0.00 71 1009.0
20260506110147 13 51 9.7 22.5 0.00 0.00 0.00 71 1009.0
20260506110137 13 40 11.3 24.1 0.00 0.00 0.00 70 1009.0
20260506105141 13 17 11.3 24.1 0.00 0.00 0.00 70 1009.0
20260506104638 13 49 11.3 22.5 0.00 0.00 0.00 69 1009.1
20260506104136 13 0 8.0 20.9 0.00 0.00 0.00 68 1009.2
20260506103636 13 90 8.0 19.3 0.00 0.00 0.00 69 1009.2
20260506103136 13 63 9.7 19.3 0.00 0.00 0.00 70 1009.2
20260506102636 13 345 9.7 24.1 0.00 0.00 0.00 68 1009.2
20260506102136 12 19 9.7 24.1 0.00 0.00 0.00 69 1009.2
20260506101635 12 40 8.0 17.7 0.00 0.00 0.00 70 1009.1
20260506101133 12 0 8.0 17.7 0.00 0.00 0.00 71 1009.2
20260506100632 12 22 8.0 17.7 0.00 0.00 0.00 71 1009.1
20260506100130 12 67 6.4 16.1 0.00 0.00 0.00 73 1009.1
20260506095630 12 18 8.0 17.7 0.00 0.00 0.00 73 1009.1
20260506095130 11 12 8.0 17.7 0.00 0.00 0.00 72 1009.1
20260506094628 11 81 9.7 25.7 0.00 0.00 0.00 72 1009.2
20260506094616 11 40 8.0 25.7 0.00 0.00 0.00 73 1009.2
20260506093628 11 26 8.0 20.9 0.00 0.00 0.00 73 1009.2
20260506093128 11 45 6.4 20.9 0.00 0.00 0.00 74 1009.2
20260506092627 11 47 8.0 17.7 0.00 0.00 0.00 74 1009.3
20260506092609 11 17 8.0 17.7 0.00 0.00 0.00 74 1009.2
20260506091844 11 38 9.7 22.5 0.00 0.00 0.00 74 1009.2
20260506091346 11 45 9.7 22.5 0.00 0.00 0.00 74 1009.1
20260506090624 11 55 9.7 19.3 0.00 0.00 0.00 75 1009.2
20260506090122 11 13 9.7 19.3 0.00 0.00 0.00 76 1009.1
20260506085617 11 20 9.7 20.9 0.00 0.00 0.00 77 1009.1
20260506085114 11 51 8.0 20.9 0.00 0.00 0.00 77 1009.1
20260506084614 11 31 9.7 22.5 0.00 0.00 0.00 78 1009.2
20260506084113 11 38 9.7 22.5 0.00 0.00 0.00 78 1009.1
20260506083610 11 78 8.0 19.3 0.00 0.00 0.00 79 1009.0
20260506083110 11 28 6.4 16.1 0.00 0.00 0.00 79 1009.0
20260506082609 11 13 8.0 17.7 0.00 0.00 0.00 80 1009.0
20260506082102 11 44 9.7 24.1 0.00 0.00 0.00 80 1009.0
20260506081602 11 52 9.7 24.1 0.00 0.00 0.00 79 1009.0
20260506081102 11 86 9.7 22.5 0.00 0.00 0.00 79 1008.9
20260506080820 11 39 9.7 22.5 0.00 0.00 0.00 79 1008.9
20260506073525 10 36 11.3 19.3 0.00 0.00 0.00 81 1008.5
20260506073514 10 5 11.3 24.1 0.00 0.00 0.00 81 1008.6
20260506072524 10 50 9.7 24.1 0.00 0.00 0.00 82 1008.7
20260506072234 10 46 8.0 20.9 0.00 0.00 0.00 83 1008.6
20260506071518 10 89 8.0 17.7 0.00 0.00 0.00 84 1008.6
20260506071242 10 98 8.0 17.7 0.00 0.00 0.00 85 1008.6
20260506070515 10 41 8.0 24.1 0.00 0.00 0.00 86 1008.6
20260506062456 10 81 9.7 22.5 0.00 0.00 0.00 88 1008.3
20260506061956 10 34 11.3 29.0 0.00 0.00 0.00 88 1008.3
20260506061456 10 36 11.3 29.0 0.00 0.00 0.00 88 1008.2
20260506060955 10 85 11.3 25.7 0.00 0.00 0.00 89 1008.4
20260506060709 10 48 9.7 20.9 0.00 0.00 0.00 89 1008.3
20260506060209 10 56 8.0 16.1 0.00 0.00 0.00 89 1008.4
20260506050930 9 41 8.0 20.9 0.00 0.00 0.00 89 1008.2
20260506050427 9 64 9.7 20.9 0.00 0.00 0.00 89 1008.2
20260506050149 9 74 9.7 22.5 0.00 0.00 0.00 89 1008.2
20260506044426 9 46 9.7 25.7 0.00 0.00 0.00 89 1008.2
20260506043925 9 37 8.0 22.5 0.00 0.00 0.00 89 1008.3
20260506043426 9 99 8.0 22.5 0.00 0.00 0.00 89 1008.3
20260506043148 9 104 6.4 16.1 0.00 0.00 0.00 89 1008.3
20260506042424 8 28 6.4 16.1 0.00 0.00 0.00 89 1008.3
20260506041922 8 45 6.4 17.7 0.00 0.00 0.00 88 1008.3
20260506041642 8 45 6.4 17.7 0.00 0.00 0.00 88 1008.3
20260506040920 8 61 6.4 16.1 0.00 0.00 0.00 88 1008.4
20260506040644 8 44 6.4 16.1 0.00 0.00 0.00 88 1008.4
20260506040139 8 23 6.4 14.5 0.00 0.00 0.00 88 1008.3
20260506035419 8 45 6.4 14.5 0.00 0.00 0.00 88 1008.4
20260506034920 8 56 6.4 14.5 0.00 0.00 0.00 88 1008.4
20260506034420 8 54 6.4 14.5 0.00 0.00 0.00 88 1008.4
20260506034138 8 44 6.4 14.5 0.00 0.00 0.00 88 1008.4
20260506033419 8 46 6.4 12.9 0.00 0.00 0.00 88 1008.4
20260506032920 8 38 6.4 16.1 0.00 0.00 0.00 88 1008.5
20260506032650 8 40 6.4 16.1 0.00 0.00 0.00 88 1008.5
20260506031920 8 42 6.4 14.5 0.00 0.00 0.00 89 1008.6
20260506031420 8 60 4.8 14.5 0.00 0.00 0.00 89 1008.5
20260506030919 8 56 6.4 16.1 0.00 0.00 0.00 89 1008.6
20260506030420 8 44 6.4 16.1 0.00 0.00 0.00 89 1008.7
20260506025919 8 40 6.4 11.3 0.00 0.00 0.00 89 1008.6
20260506025641 8 34 6.4 12.9 0.00 0.00 0.00 89 1008.7
20260506024920 8 52 6.4 14.5 0.00 0.00 0.00 89 1008.7
20260506024419 8 64 4.8 14.5 0.00 0.00 0.00 89 1008.7
20260506023919 8 61 4.8 12.9 0.00 0.00 0.00 89 1008.8
20260506023420 8 105 6.4 16.1 0.00 0.00 0.00 89 1008.8
20260506022919 8 53 4.8 16.1 0.00 0.00 0.00 89 1008.9
20260506022419 8 76 4.8 16.1 0.00 0.00 0.00 89 1008.9
20260506021919 8 40 4.8 16.1 0.00 0.00 0.00 89 1008.8
20260506021418 8 52 4.8 9.7 0.00 0.00 0.00 89 1008.9
20260506020917 9 42 4.8 12.9 0.00 0.00 0.00 89 1008.9
20260506020414 9 59 6.4 12.9 0.00 0.00 0.00 89 1008.9
20260506015913 9 28 4.8 9.7 0.00 0.00 0.00 89 1008.9
20260506015412 9 25 4.8 9.7 0.00 0.00 0.00 88 1008.9
20260506014912 9 71 4.8 9.7 0.00 0.00 0.00 88 1008.9
20260506014411 9 38 3.2 8.0 0.00 0.00 0.00 88 1008.9
20260506013910 9 45 3.2 9.7 0.00 0.00 0.00 88 1009.0
20260506013407 9 22 4.8 9.7 0.00 0.00 0.00 88 1008.9
20260506012907 9 30 4.8 11.3 0.00 0.00 0.00 88 1009.0
20260506012408 9 55 6.4 16.1 0.00 0.00 0.00 88 1009.0
20260506012129 9 37 8.0 16.1 0.00 0.00 0.00 88 1009.1
20260506011359 9 111 8.0 19.3 0.00 0.00 0.00 88 1009.1
20260506010859 9 20 8.0 19.3 0.00 0.00 0.00 87 1009.0
20260506010359 9 66 8.0 17.7 0.00 0.00 0.00 87 1009.1
20260506005900 10 355 9.7 17.7 0.00 0.00 0.00 87 1009.0
20260506005359 10 52 9.7 22.5 0.00 0.00 0.00 87 1009.0
20260506004900 10 49 9.7 22.5 0.00 0.00 0.00 86 1009.0
20260506004359 10 59 9.7 19.3 0.00 0.00 0.00 86 1009.1
20260506003900 10 39 8.0 19.3 0.00 0.00 0.00 86 1009.2
20260506003400 10 52 8.0 16.1 0.00 0.00 0.00 86 1009.3
20260506002900 10 36 8.0 16.1 0.00 0.00 0.00 86 1009.4
20260506002400 10 71 8.0 16.1 0.00 0.00 0.00 86 1009.5
20260506001900 10 70 6.4 17.7 0.00 0.00 0.00 86 1009.5
20260506001359 10 67 6.4 20.9 0.00 0.00 0.00 85 1009.5
20260506000858 10 28 8.0 20.9 0.00 0.00 0.00 85 1009.5
20260506000358 10 33 8.0 16.1 0.00 0.00 0.00 85 1009.5
20260505235857 10 17 6.4 16.1 0.00 0.00 0.00 84 1009.5
20260505235357 10 46 8.0 19.3 0.00 0.00 0.00 84 1009.5
20260505234857 10 24 11.3 22.5 0.00 0.00 0.00 84 1009.4
20260505234357 10 32 11.3 22.5 0.00 0.00 0.00 84 1009.4
20260505233857 10 69 11.3 20.9 0.00 0.00 0.00 84 1009.5
20260505233357 10 32 11.3 20.9 0.00 0.00 0.00 84 1009.5
20260505232857 10 38 11.3 19.3 0.00 0.00 0.00 84 1009.6
20260505232357 10 32 11.3 24.1 0.00 0.00 0.00 84 1009.7
20260505231857 10 27 12.9 24.1 0.00 0.00 0.00 84 1009.6
20260505231357 9 16 12.9 22.5 0.00 0.00 0.00 84 1009.6
20260505230857 9 42 14.5 25.7 0.00 0.00 0.00 85 1009.8
20260505230358 9 49 14.5 27.4 0.00 0.00 0.00 85 1009.7
20260505225857 9 48 14.5 27.4 0.00 0.00 0.00 85 1009.7
20260505225355 9 53 14.5 29.0 0.00 0.00 0.00 85 1009.7
20260505224848 9 57 14.5 29.0 0.00 0.00 0.00 85 1009.8
20260505224350 9 27 14.5 25.7 0.00 0.00 0.00 85 1009.9
20260505223849 9 47 12.9 25.7 0.00 0.00 0.00 85 1009.9
20260505223350 9 51 11.3 22.5 0.00 0.00 0.00 85 1010.0
20260505222849 9 60 9.7 19.3 0.00 0.00 0.00 85 1010.2
20260505222349 9 41 9.7 17.7 0.00 0.00 0.00 85 1010.1
20260505221850 9 19 11.3 20.9 0.00 0.00 0.00 85 1010.2
20260505221349 9 49 11.3 22.5 0.00 0.00 0.00 85 1010.3
20260505220849 9 40 11.3 24.1 0.00 0.00 0.00 85 1010.4
20260505220608 9 35 12.9 25.7 0.00 0.00 0.00 85 1010.4
20260505215848 9 26 12.9 25.7 0.00 0.00 0.00 85 1010.4
20260505215349 9 40 12.9 22.5 0.00 0.00 0.00 85 1010.5
20260505214849 9 34 11.3 22.5 0.00 0.00 0.00 85 1010.5
20260505214608 9 39 11.3 19.3 0.00 0.00 0.00 85 1010.6
20260505213849 9 32 11.3 19.3 0.00 0.00 0.00 85 1010.6
20260505213349 9 53 9.7 20.9 0.00 0.00 0.00 85 1010.7
20260505212848 9 42 8.0 20.9 0.00 0.00 0.00 85 1010.6
20260505212345 9 39 8.0 17.7 0.00 0.00 0.00 85 1010.6
20260505211841 9 49 6.4 17.7 0.00 0.00 0.00 85 1010.6
20260505211340 9 54 8.0 24.1 0.00 0.00 0.00 84 1010.6
20260505210832 9 61 9.7 24.1 0.00 0.00 0.00 84 1010.6
20260505210333 9 0 8.0 20.9 0.00 0.00 0.00 84 1010.6
20260505205833 9 51 8.0 20.9 0.00 0.00 0.00 84 1010.7
20260505205642 9 51 8.0 22.5 0.00 0.00 0.00 84 1010.7
20260505205546 9 49 8.0 22.5 0.00 0.00 0.00 83 1010.7
20260505204330 9 50 9.7 17.7 0.00 0.00 0.00 83 1010.7
20260505203829 9 32 8.0 16.1 0.00 0.00 0.00 83 1010.7
20260505203551 9 355 6.4 17.7 0.00 0.00 0.00 83 1010.7
20260505202825 9 83 6.4 17.7 0.00 0.00 0.00 83 1010.7
20260505202325 9 42 8.0 22.5 0.00 0.00 0.00 83 1010.7
20260505201825 9 74 9.7 22.5 0.00 0.00 0.00 83 1010.8
20260505201322 9 53 11.3 20.9 0.00 0.00 0.00 83 1010.7
20260505201040 9 43 11.3 20.9 0.00 0.00 0.00 84 1010.7
20260505200322 9 40 8.0 17.7 0.00 0.00 0.00 84 1010.7
20260505195823 9 43 8.0 16.1 0.00 0.00 0.00 84 1010.7
20260505195321 9 53 8.0 19.3 0.00 0.00 0.00 84 1010.7
20260505194821 9 27 9.7 22.5 0.00 0.00 0.00 84 1010.7
20260505194319 9 348 11.3 22.5 0.00 0.00 0.00 84 1010.7
20260505193816 9 44 8.0 20.9 0.00 0.00 0.00 84 1010.7
20260505193308 9 28 9.7 20.9 0.00 0.00 0.00 85 1010.5
20260505192810 9 65 11.3 20.9 0.00 0.00 0.00 85 1010.6
20260505192305 9 32 11.3 20.9 0.00 0.00 0.00 85 1010.6
20260505191804 10 40 9.7 20.9 0.00 0.00 0.00 85 1010.7
20260505191522 10 38 11.3 20.9 0.00 0.00 0.00 85 1010.6
20260505190802 10 26 11.3 24.1 0.00 0.00 0.00 85 1010.6
20260505190255 10 34 9.7 24.1 0.00 0.00 0.00 85 1010.5
20260505185750 10 32 12.9 22.5 0.00 0.00 0.00 85 1010.5
20260505185250 10 38 12.9 22.5 0.00 0.00 0.00 85 1010.5
20260505184750 10 49 12.9 25.7 0.00 0.00 0.00 84 1010.4
20260505184249 10 38 12.9 25.7 0.00 0.00 0.00 84 1010.5
20260505183750 10 40 9.7 25.7 0.00 0.00 0.00 85 1010.5
20260505183248 10 57 9.7 22.5 0.00 0.00 0.00 85 1010.4
20260505182747 10 35 11.3 22.5 0.00 0.00 0.00 84 1010.4
20260505182246 10 69 11.3 20.9 0.00 0.00 0.00 84 1010.4
20260505181747 10 43 11.3 20.9 0.00 0.00 0.00 84 1010.3
20260505181246 10 32 11.3 22.5 0.00 0.00 0.00 84 1010.5
20260505180741 10 21 12.9 25.7 0.00 0.00 0.00 84 1010.5
20260505180241 10 32 12.9 29.0 0.00 0.00 0.00 83 1010.4
20260505175741 10 61 11.3 29.0 0.00 0.00 0.00 83 1010.5
20260505175241 10 33 9.7 20.9 0.00 0.00 0.00 83 1010.5
20260505174950 10 37 11.3 25.7 0.00 0.00 0.00 83 1010.4
20260505174233 10 25 12.9 25.7 0.00 0.00 0.00 83 1010.3
20260505173733 10 57 11.3 24.1 0.00 0.00 0.00 83 1010.4
20260505173233 10 70 11.3 24.1 0.00 0.00 0.00 83 1010.4
20260505172733 10 95 11.3 25.7 0.00 0.00 0.00 83 1010.5
20260505172452 10 30 11.3 25.7 0.00 0.00 0.00 83 1010.4
20260505171730 10 45 9.7 24.1 0.00 0.00 0.00 83 1010.4
20260505171229 10 34 11.3 24.1 0.00 0.00 0.00 83 1010.5
20260505170729 10 36 12.9 27.4 0.00 0.00 0.00 83 1010.5
20260505170229 10 36 14.5 27.4 0.00 0.00 0.00 83 1010.5
20260505165956 10 41 14.5 27.4 0.00 0.00 0.00 83 1010.5
20260505165222 10 46 12.9 27.4 0.00 0.00 0.00 83 1010.6
20260505164721 10 51 12.9 24.1 0.00 0.00 0.00 83 1010.7
20260505164221 10 35 12.9 22.5 0.00 0.00 0.00 83 1010.7
20260505163723 10 38 12.9 25.7 0.00 0.00 0.00 83 1010.7
20260505163219 10 50 14.5 25.7 0.00 0.00 0.00 82 1010.8
20260505162941 10 34 14.5 25.7 0.00 0.00 0.00 82 1010.7
20260505162217 10 26 14.5 24.1 0.00 0.00 0.00 82 1010.7
20260505161717 10 38 14.5 27.4 0.00 0.00 0.00 82 1010.8
20260505161217 10 57 12.9 27.4 0.00 0.00 0.00 82 1010.7
20260505160717 10 53 12.9 22.5 0.00 0.00 0.00 83 1010.7
20260505160215 10 30 14.5 25.7 0.00 0.00 0.00 83 1010.7
20260505152712 11 24 16.1 27.4 0.00 0.00 0.00 81 1010.9
20260505152212 11 49 12.9 27.4 0.00 0.00 0.00 81 1010.9
20260505151712 11 55 11.3 22.5 0.00 0.00 0.00 81 1010.9
20260505151224 11 9 11.3 20.9 0.00 0.00 0.00 81 1010.9
20260505150932 11 55 11.3 25.7 0.00 0.00 0.00 80 1011.0
20260505150211 11 34 12.9 25.7 0.00 0.00 0.00 80 1010.9